Location: Sternwarte ZA, Rosenfeld-Brittheim
(48.2889°N, 8.6789°E)
Time: 21:28:50
(UTC+02:00)

ISS - Pass Details

Date: 22 May 2017
Orbit: 402 x 409 km, 51.6° (Epoch: 25 May)

Event Time Altitude Azimuth Distance (km) Brightness Sun altitude
Exits shadow 00:34:03 20° 73° (ENE) 1,021 -1.8 -20.5°
Drops below altitude 10° 00:35:11 10° 70° (ENE) 1,469 -0.9 -20.5°
Sets 00:37:16 0° 68° (ENE) 2,330 0.2 -20.6°
